Back to catalog

SL-8 DEB

AliveLEO
NORAD 18697·DEBRIS·🇷🇺 Russia

Launched Dec 1, 1987 from Plesetsk Cosmodrome

Loading…

Next Passes (next 24 hours)

TLE

FreshSource: Space-Track

Epoch: Sep 14, 2026, 09:10 UTC

1 18697U 87098C   26257.38206476  .00001133  00000-0  22205-3 0  9993
2 18697  73.9940 127.8634 0005332 349.6100 185.4878 14.63992991 46163

Track SL-8 DEB in real time with AllMySat

Download on the App Store